GW3701 Weather Reports


time (UTC)temp
F
wind
direction
speed
knots
gust
knots
rain 1hr
in
rain 24hr
in
rain mn
in
humidity
%
barometer
mb
20260906202424 103 209 0.9 0.9 0.00 0.00 0.00 35 1012.4
20260906201920 102 163 3.5 6.1 0.00 0.00 0.00 35 1012.6
20260906201413 102 204 1.7 1.7 0.00 0.00 0.00 36 1012.6
20260906200909 101 224 0.9 1.7 0.00 0.00 0.00 37 1012.7
20260906200400 100 225 1.7 1.7 0.00 0.00 0.00 38 1012.8
20260906195900 100 215 0.0 0.0 0.00 0.00 0.00 37 1013.0
20260906195356 102 202 1.7 1.7 0.00 0.00 0.00 36 1013.0
20260906194852 101 26 2.6 2.6 0.00 0.00 0.00 36 1013.2
20260906194348 102 185 1.7 1.7 0.00 0.00 0.00 36 1013.0
20260906193842 103 214 0.9 0.9 0.00 0.00 0.00 35 1013.3
20260906193338 103 212 2.6 2.6 0.00 0.00 0.00 35 1013.3
20260906192833 103 187 5.2 6.1 0.00 0.00 0.00 35 1013.3
20260906192327 102 206 1.7 1.7 0.00 0.00 0.00 37 1013.4
20260906191826 101 230 1.7 3.5 0.00 0.00 0.00 37 1013.5
20260906191321 102 199 2.6 3.5 0.00 0.00 0.00 37 1013.6
20260906190816 102 207 2.6 3.5 0.00 0.00 0.00 36 1013.5
20260906190315 103 187 1.7 2.6 0.00 0.00 0.00 35 1013.4
20260906185815 102 214 0.9 0.9 0.00 0.00 0.00 35 1013.7
20260906185314 101 202 0.9 0.9 0.00 0.00 0.00 36 1013.8
20260906184809 101 225 1.7 2.6 0.00 0.00 0.00 38 1013.8
20260906184304 100 140 2.6 3.5 0.00 0.00 0.00 38 1013.9
20260906183759 101 222 1.7 2.6 0.00 0.00 0.00 39 1013.8
20260906183256 101 206 0.0 0.9 0.00 0.00 0.00 38 1014.0
20260906182755 101 199 2.6 3.5 0.00 0.00 0.00 38 1014.2
20260906182251 101 212 0.9 1.7 0.00 0.00 0.00 38 1014.3
20260906181746 100 200 1.7 1.7 0.00 0.00 0.00 37 1014.3
20260906181242 101 206 0.9 0.9 0.00 0.00 0.00 37 1014.4
20260906180737 100 234 4.3 6.1 0.00 0.00 0.00 36 1014.5
20260906180232 99 294 2.6 2.6 0.00 0.00 0.00 40 1014.3
20260906175729 98 86 0.9 0.9 0.00 0.00 0.00 41 1014.6
20260906175225 98 206 2.6 3.5 0.00 0.00 0.00 41 1014.8
20260906174723 97 183 1.7 1.7 0.00 0.00 0.00 42 1014.7
20260906174218 96 342 1.7 3.5 0.00 0.00 0.00 43 1014.7
20260906173714 97 163 3.5 3.5 0.00 0.00 0.00 43 1015.0
20260906173209 98 193 1.7 1.7 0.00 0.00 0.00 41 1015.0
20260906172703 98 226 0.9 0.9 0.00 0.00 0.00 41 1015.0
20260906172158 97 212 0.0 0.0 0.00 0.00 0.00 42 1015.2
20260906171658 98 228 0.9 0.9 0.00 0.00 0.00 42 1015.2
20260906171154 97 215 0.0 0.0 0.00 0.00 0.00 42 1015.4
20260906170650 97 217 0.0 0.0 0.00 0.00 0.00 43 1015.5
20260906170149 97 194 0.0 0.9 0.00 0.00 0.00 43 1015.5
20260906165646 96 205 1.7 1.7 0.00 0.00 0.00 44 1015.7
20260906165141 96 210 0.9 1.7 0.00 0.00 0.00 44 1015.9
20260906164639 97 224 0.9 1.7 0.00 0.00 0.00 43 1015.8
20260906164135 98 209 1.7 2.6 0.00 0.00 0.00 42 1015.7
20260906163631 98 194 3.5 3.5 0.00 0.00 0.00 41 1015.7
20260906163127 98 203 4.3 6.1 0.00 0.00 0.00 42 1015.7
20260906162624 96 209 0.9 0.9 0.00 0.00 0.00 42 1015.9
20260906162118 96 228 0.9 1.7 0.00 0.00 0.00 45 1015.8
20260906161618 96 217 0.0 0.0 0.00 0.00 0.00 44 1015.6
20260906161117 94 220 0.0 0.0 0.00 0.00 0.00 46 1015.6
20260906160616 95 215 0.9 0.9 0.00 0.00 0.00 48 1015.6
20260906160115 95 217 0.0 0.9 0.00 0.00 0.00 47 1015.7
20260906155613 94 215 1.7 2.6 0.00 0.00 0.00 46 1015.6
20260906155109 94 201 1.7 1.7 0.00 0.00 0.00 47 1015.6
20260906154604 95 218 0.9 0.9 0.00 0.00 0.00 47 1015.6
20260906154103 95 211 0.9 0.9 0.00 0.00 0.00 47 1015.5
20260906153602 93 216 0.9 0.9 0.00 0.00 0.00 50 1015.4
20260906153057 92 218 1.7 1.7 0.00 0.00 0.00 51 1015.5
20260906152557 92 209 1.7 1.7 0.00 0.00 0.00 51 1015.6
20260906152051 91 214 0.9 1.7 0.00 0.00 0.00 52 1015.7
20260906151546 91 210 0.0 0.0 0.00 0.00 0.00 52 1015.4
20260906151042 91 213 0.0 0.0 0.00 0.00 0.00 54 1015.5
20260906150537 90 219 0.9 0.9 0.00 0.00 0.00 55 1015.5
20260906150032 90 209 0.9 0.9 0.00 0.00 0.00 55 1015.4
20260906145531 90 202 0.9 1.7 0.00 0.00 0.00 54 1015.5
20260906145026 89 213 0.0 0.0 0.00 0.00 0.00 57 1015.5
20260906144520 88 216 0.0 0.0 0.00 0.00 0.00 57 1015.4
20260906144016 88 217 0.0 0.0 0.00 0.00 0.00 58 1015.4
20260906143511 88 216 0.0 0.0 0.00 0.00 0.00 58 1015.5
20260906143007 88 215 1.7 2.6 0.00 0.00 0.00 57 1015.2
20260906142501 88 224 1.7 1.7 0.00 0.00 0.00 57 1015.4
20260906141956 88 214 0.0 0.0 0.00 0.00 0.00 58 1015.5
20260906141455 87 216 0.0 0.0 0.00 0.00 0.00 61 1015.2
20260906140951 86 212 0.0 0.9 0.00 0.00 0.00 59 1015.3
20260906140445 86 214 0.0 0.0 0.00 0.00 0.00 60 1015.3
20260906135943 86 221 3.5 3.5 0.00 0.00 0.00 59 1015.2
20260906135442 85 230 1.7 2.6 0.00 0.00 0.00 60 1015.3
20260906134937 84 221 1.7 1.7 0.00 0.00 0.00 62 1015.0
20260906134432 84 215 0.0 0.0 0.00 0.00 0.00 63 1015.0
20260906133927 84 214 1.7 1.7 0.00 0.00 0.00 64 1015.2
20260906133423 83 217 0.0 0.9 0.00 0.00 0.00 64 1014.9
20260906132919 83 213 0.9 0.9 0.00 0.00 0.00 64 1014.9
20260906132414 83 200 1.7 1.7 0.00 0.00 0.00 63 1015.0
20260906131909 82 204 1.7 1.7 0.00 0.00 0.00 64 1014.8
20260906131405 82 197 1.7 3.5 0.00 0.00 0.00 64 1014.8
20260906130901 81 206 1.7 1.7 0.00 0.00 0.00 65 1014.8
20260906130359 81 215 1.7 2.6 0.00 0.00 0.00 65 1014.8
20260906125859 80 220 1.7 2.6 0.00 0.00 0.00 66 1014.7
20260906125356 81 214 1.7 1.7 0.00 0.00 0.00 66 1014.7
20260906124851 80 208 1.7 1.7 0.00 0.00 0.00 65 1014.8
20260906124347 80 206 0.9 1.7 0.00 0.00 0.00 66 1014.6
20260906123846 80 204 0.9 1.7 0.00 0.00 0.00 67 1014.6
20260906123341 80 207 1.7 1.7 0.00 0.00 0.00 66 1014.7
20260906122841 79 205 0.9 1.7 0.00 0.00 0.00 67 1014.7
20260906122336 79 208 0.9 1.7 0.00 0.00 0.00 67 1014.4
20260906121833 79 201 0.9 1.7 0.00 0.00 0.00 67 1014.3
20260906121328 79 178 1.7 3.5 0.00 0.00 0.00 67 1014.4
20260906120824 79 208 1.7 1.7 0.00 0.00 0.00 67 1014.3
20260906120320 79 211 0.9 2.6 0.00 0.00 0.00 67 1014.3
20260906115816 79 206 1.7 1.7 0.00 0.00 0.00 67 1014.2
20260906115311 79 205 1.7 1.7 0.00 0.00 0.00 67 1014.2
20260906114810 79 190 1.7 2.6 0.00 0.00 0.00 67 1014.2
20260906114305 79 205 0.9 0.9 0.00 0.00 0.00 67 1014.0
20260906113800 79 209 0.9 0.9 0.00 0.00 0.00 67 1014.0
20260906113300 79 208 0.9 0.9 0.00 0.00 0.00 67 1014.0
20260906112755 79 208 0.9 1.7 0.00 0.00 0.00 66 1014.0
20260906112251 80 208 0.0 0.0 0.00 0.00 0.00 66 1013.7
20260906111750 80 206 0.9 2.6 0.00 0.00 0.00 65 1013.7
20260906111244 80 206 1.7 1.7 0.00 0.00 0.00 65 1013.6
20260906110739 80 204 2.6 2.6 0.00 0.00 0.00 65 1013.6
20260906110236 80 203 1.7 1.7 0.00 0.00 0.00 65 1013.7
20260906105734 80 204 1.7 2.6 0.00 0.00 0.00 65 1013.7
20260906105230 80 204 1.7 1.7 0.00 0.00 0.00 65 1013.5
20260906104725 80 201 1.7 1.7 0.00 0.00 0.00 65 1013.5
20260906104224 80 203 1.7 2.6 0.00 0.00 0.00 65 1013.6
20260906103722 80 194 1.7 2.6 0.00 0.00 0.00 65 1013.4
20260906103217 80 206 1.7 2.6 0.00 0.00 0.00 64 1013.4
20260906102712 80 209 1.7 2.6 0.00 0.00 0.00 65 1013.5
20260906102211 80 208 1.7 2.6 0.00 0.00 0.00 66 1013.4
20260906101706 79 204 1.7 2.6 0.00 0.00 0.00 66 1013.2
20260906101201 79 204 0.0 0.9 0.00 0.00 0.00 67 1013.2
20260906100656 79 208 0.0 0.0 0.00 0.00 0.00 68 1013.3
20260906100151 79 207 0.9 1.7 0.00 0.00 0.00 67 1013.5
20260906095646 79 206 0.0 0.9 0.00 0.00 0.00 67 1013.3
20260906095141 79 204 0.9 0.9 0.00 0.00 0.00 67 1013.5
20260906094640 80 206 0.0 0.0 0.00 0.00 0.00 66 1013.4
20260906094135 80 204 0.0 0.9 0.00 0.00 0.00 65 1013.3
20260906093632 80 206 0.0 0.0 0.00 0.00 0.00 66 1013.5
20260906093126 79 208 0.0 0.0 0.00 0.00 0.00 66 1013.3
20260906092621 79 207 0.0 0.0 0.00 0.00 0.00 67 1013.2
20260906092116 79 207 0.0 0.0 0.00 0.00 0.00 67 1013.4
20260906091612 79 207 0.0 0.0 0.00 0.00 0.00 66 1013.3
20260906091109 80 207 0.0 0.0 0.00 0.00 0.00 66 1013.4
20260906090608 80 206 0.0 0.0 0.00 0.00 0.00 65 1013.5
20260906085602 80 207 0.0 0.0 0.00 0.00 0.00 65 1013.4
20260906085056 81 207 0.0 0.0 0.00 0.00 0.00 64 1013.4
20260906084551 81 210 0.0 0.0 0.00 0.00 0.00 63 1013.3
20260906084050 81 206 0.0 0.9 0.00 0.00 0.00 63 1013.4
20260906083546 81 205 1.7 1.7 0.00 0.00 0.00 63 1013.2
20260906083045 81 203 1.7 1.7 0.00 0.00 0.00 62 1013.2
20260906082541 82 205 0.9 0.9 0.00 0.00 0.00 62 1013.2
20260906082037 81 205 1.7 2.6 0.00 0.00 0.00 62 1013.0
20260906081532 82 208 0.0 0.0 0.00 0.00 0.00 61 1013.4
20260906081027 82 205 0.0 0.9 0.00 0.00 0.00 60 1013.3
20260906080524 83 205 0.9 0.9 0.00 0.00 0.00 59 1013.3
20260906080019 83 206 0.9 1.7 0.00 0.00 0.00 58 1013.2
20260906075514 83 206 0.9 0.9 0.00 0.00 0.00 57 1013.2
20260906075009 83 210 1.7 1.7 0.00 0.00 0.00 57 1013.3
20260906074503 83 204 1.7 2.6 0.00 0.00 0.00 57 1013.1
20260906074002 83 205 1.7 1.7 0.00 0.00 0.00 58 1013.2
20260906073456 82 206 1.7 1.7 0.00 0.00 0.00 59 1013.1
20260906072953 82 208 0.0 0.0 0.00 0.00 0.00 61 1013.3
20260906072448 82 208 0.9 0.9 0.00 0.00 0.00 60 1013.1
20260906071944 82 208 0.0 0.9 0.00 0.00 0.00 60 1013.1
20260906071440 82 208 0.0 0.0 0.00 0.00 0.00 59 1013.3
20260906070935 83 208 0.9 0.9 0.00 0.00 0.00 58 1013.2
20260906070431 83 208 0.9 0.9 0.00 0.00 0.00 58 1013.3
20260906065927 83 207 0.0 0.0 0.00 0.00 0.00 58 1013.2
20260906065421 83 206 1.7 1.7 0.00 0.00 0.00 58 1013.2
20260906064916 82 208 0.9 0.9 0.00 0.00 0.00 58 1013.4
20260906064413 82 208 1.7 1.7 0.00 0.00 0.00 58 1013.1
20260906063913 82 209 0.9 0.9 0.00 0.00 0.00 59 1013.2
20260906063408 82 209 0.0 0.0 0.00 0.00 0.00 60 1013.3
20260906062903 81 209 0.9 0.9 0.00 0.00 0.00 61 1013.1
20260906062403 81 209 0.0 0.0 0.00 0.00 0.00 62 1013.1
20260906061858 81 209 0.0 0.0 0.00 0.00 0.00 61 1013.4
20260906061354 81 209 0.0 0.0 0.00 0.00 0.00 61 1013.4
20260906060848 81 209 0.0 0.0 0.00 0.00 0.00 61 1013.2
20260906060346 82 209 0.0 0.0 0.00 0.00 0.00 60 1013.4
20260906055842 82 209 0.0 0.0 0.00 0.00 0.00 59 1013.2
20260906055337 82 209 0.0 0.0 0.00 0.00 0.00 59 1013.3
20260906054832 82 209 0.9 1.7 0.00 0.00 0.00 59 1013.2
20260906054326 82 208 0.9 0.9 0.00 0.00 0.00 60 1013.2
20260906053818 82 207 0.9 1.7 0.00 0.00 0.00 60 1013.1
20260906053314 81 207 0.9 0.9 0.00 0.00 0.00 62 1013.1
20260906052808 81 205 0.0 0.0 0.00 0.00 0.00 63 1013.1
20260906052306 81 198 1.7 1.7 0.00 0.00 0.00 65 1013.2
20260906051802 82 198 1.7 1.7 0.00 0.00 0.00 64 1013.2
20260906051301 84 198 0.9 0.9 0.00 0.00 0.00 57 1013.3
20260906050756 84 207 0.0 0.0 0.00 0.00 0.00 55 1013.0
20260906050252 85 207 0.0 0.0 0.00 0.00 0.00 54 1013.1
20260906045750 85 211 0.9 0.9 0.00 0.00 0.00 54 1012.9
20260906045245 85 205 0.9 0.9 0.00 0.00 0.00 54 1013.0
20260906044741 85 210 0.9 1.7 0.00 0.00 0.00 54 1012.8
20260906044236 85 205 0.9 0.9 0.00 0.00 0.00 54 1013.0
20260906043732 85 206 0.9 0.9 0.00 0.00 0.00 54 1013.0
20260906043228 85 206 0.0 0.0 0.00 0.00 0.00 55 1013.1
20260906042727 86 213 0.0 0.0 0.00 0.00 0.00 54 1013.1
20260906042226 86 206 0.0 0.0 0.00 0.00 0.00 54 1013.1
20260906041722 85 205 0.9 1.7 0.00 0.00 0.00 54 1013.1
20260906041217 85 207 0.0 0.9 0.00 0.00 0.00 55 1012.9
20260906040712 85 207 0.0 0.0 0.00 0.00 0.00 55 1013.0
20260906040207 86 207 0.0 0.0 0.00 0.00 0.00 54 1013.1
20260906035703 86 207 0.0 0.0 0.00 0.00 0.00 54 1013.1
20260906035158 86 207 0.0 0.0 0.00 0.00 0.00 53 1013.2
20260906034653 86 207 0.0 0.9 0.00 0.00 0.00 53 1013.1
20260906034148 86 209 0.0 0.0 0.00 0.00 0.00 53 1013.0
20260906033643 87 208 0.0 0.0 0.00 0.00 0.00 53 1013.0
20260906033138 87 209 0.0 0.9 0.00 0.00 0.00 52 1013.0
20260906032635 87 205 0.9 1.7 0.00 0.00 0.00 52 1012.9
20260906032134 87 207 0.9 1.7 0.00 0.00 0.00 51 1012.8
20260906031630 87 208 0.9 0.9 0.00 0.00 0.00 51 1012.8
20260906031125 87 208 0.0 0.0 0.00 0.00 0.00 50 1013.0
20260906030624 87 210 0.0 0.0 0.00 0.00 0.00 51 1013.0
20260906030120 88 206 0.9 1.7 0.00 0.00 0.00 51 1013.1
20260906025619 88 208 0.9 0.9 0.00 0.00 0.00 50 1012.8
20260906025118 88 207 0.0 0.9 0.00 0.00 0.00 51 1012.8
20260906024613 88 207 0.0 0.0 0.00 0.00 0.00 51 1012.8
20260906024107 88 211 0.0 0.0 0.00 0.00 0.00 51 1012.9
20260906023603 88 208 0.0 0.0 0.00 0.00 0.00 51 1012.7
20260906023058 88 208 0.9 0.9 0.00 0.00 0.00 51 1012.7
20260906022553 87 208 0.9 0.9 0.00 0.00 0.00 51 1012.7
20260906022049 87 208 0.0 0.0 0.00 0.00 0.00 51 1012.6
20260906021544 87 208 0.0 0.0 0.00 0.00 0.00 51 1012.5
20260906021043 87 209 0.0 0.0 0.00 0.00 0.00 51 1012.5
20260906020543 87 209 0.0 0.0 0.00 0.00 0.00 51 1012.5
20260906020042 87 208 0.0 0.0 0.00 0.00 0.00 51 1012.4
20260906015541 87 208 0.0 0.0 0.00 0.00 0.00 52 1012.4
20260906015036 87 208 0.0 0.0 0.00 0.00 0.00 51 1012.4
20260906014531 87 208 0.0 0.0 0.00 0.00 0.00 51 1012.6
20260906014026 87 208 0.0 0.0 0.00 0.00 0.00 51 1012.2
20260906013522 87 208 0.0 0.0 0.00 0.00 0.00 51 1012.1
20260906013018 88 208 0.0 0.0 0.00 0.00 0.00 50 1012.0
20260906012513 88 208 0.0 0.0 0.00 0.00 0.00 50 1011.9
20260906012011 89 208 0.0 0.0 0.00 0.00 0.00 49 1012.1
20260906011508 89 209 0.0 0.0 0.00 0.00 0.00 49 1011.9
20260906011002 90 209 0.0 0.0 0.00 0.00 0.00 48 1012.0
20260906010457 90 209 0.0 0.0 0.00 0.00 0.00 47 1011.8
20260906005954 91 209 0.0 0.0 0.00 0.00 0.00 47 1012.0
20260906005453 92 208 0.0 0.0 0.00 0.00 0.00 46 1011.9
20260906004951 92 209 0.0 0.0 0.00 0.00 0.00 45 1011.7
20260906004451 93 209 0.0 0.0 0.00 0.00 0.00 45 1011.8
20260906003947 93 208 0.0 0.0 0.00 0.00 0.00 44 1011.7
20260906003442 94 199 0.9 1.7 0.00 0.00 0.00 43 1011.8
20260906002937 95 203 1.7 2.6 0.00 0.00 0.00 42 1011.7
20260906002437 95 187 0.9 0.9 0.00 0.00 0.00 41 1011.5
20260906001932 96 210 0.0 0.0 0.00 0.00 0.00 41 1011.6
20260906001427 96 211 0.0 0.0 0.00 0.00 0.00 40 1011.6
20260906000917 96 209 0.0 0.0 0.00 0.00 0.00 40 1011.7
20260906000412 96 209 0.0 0.0 0.00 0.00 0.00 40 1011.6
20260905235907 96 209 0.0 0.0 0.00 0.00 0.00 40 1011.5
20260905235401 96 207 0.0 0.9 0.00 0.00 0.00 40 1011.5
20260905234856 96 203 0.9 0.9 0.00 0.00 0.00 40 1011.5
20260905234351 96 208 0.0 0.0 0.00 0.00 0.00 40 1011.4
20260905233846 97 205 0.0 0.9 0.00 0.00 0.00 39 1011.6
20260905233342 98 209 0.0 0.0 0.00 0.00 0.00 39 1011.4
20260905232841 98 205 0.9 0.9 0.00 0.00 0.00 38 1011.4
20260905232337 98 211 0.0 0.0 0.00 0.00 0.00 37 1011.4
20260905231832 99 214 0.9 0.9 0.00 0.00 0.00 37 1011.3
20260905231332 99 212 0.9 1.7 0.00 0.00 0.00 37 1011.0
20260905230830 98 204 2.6 6.1 0.00 0.00 0.00 37 1011.3
20260905230327 98 199 0.9 1.7 0.00 0.00 0.00 38 1011.0
20260905225827 99 194 2.6 3.5 0.00 0.00 0.00 37 1011.2
20260905225322 99 209 0.9 0.9 0.00 0.00 0.00 36 1011.3
20260905224822 98 197 2.6 5.2 0.00 0.00 0.00 37 1010.9
20260905224318 99 89 3.5 5.2 0.00 0.00 0.00 37 1011.2
20260905223812 100 191 2.6 2.6 0.00 0.00 0.00 36 1010.9
20260905223310 100 206 1.7 2.6 0.00 0.00 0.00 36 1011.0
20260905222805 101 135 0.9 1.7 0.00 0.00 0.00 36 1011.0
20260905222306 101 213 0.0 0.9 0.00 0.00 0.00 36 1011.0
20260905221800 100 208 1.7 1.7 0.00 0.00 0.00 36 1011.2
20260905221256 99 187 2.6 3.5 0.00 0.00 0.00 38 1011.2
20260905220752 100 214 0.9 0.9 0.00 0.00 0.00 38 1011.4
20260905220248 101 185 3.5 6.1 0.00 0.00 0.00 36 1011.4
20260905215747 100 211 0.0 0.0 0.00 0.00 0.00 38 1011.3
20260905215243 98 189 1.7 2.6 0.00 0.00 0.00 38 1011.3
20260905214739 100 225 1.7 2.6 0.00 0.00 0.00 37 1011.6
20260905214235 100 218 1.7 2.6 0.00 0.00 0.00 35 1011.7
20260905213730 99 198 4.3 6.1 0.00 0.00 0.00 37 1011.9
20260905213226 102 205 1.7 2.6 0.00 0.00 0.00 36 1011.8
20260905212721 101 190 1.7 2.6 0.00 0.00 0.00 35 1011.8
20260905212220 101 191 1.7 2.6 0.00 0.00 0.00 36 1011.9
20260905211719 102 205 0.9 1.7 0.00 0.00 0.00 35 1011.7
20260905211215 102 201 0.9 1.7 0.00 0.00 0.00 36 1011.7
20260905210712 102 213 3.5 3.5 0.00 0.00 0.00 35 1012.1
20260905210212 101 226 1.7 1.7 0.00 0.00 0.00 35 1012.0
20260905205710 101 179 0.9 1.7 0.00 0.00 0.00 36 1012.2
20260905205205 102 210 1.7 2.6 0.00 0.00 0.00 34 1012.2
20260905204705 101 203 2.6 3.5 0.00 0.00 0.00 35 1012.3
20260905204200 100 194 6.1 7.8 0.00 0.00 0.00 36 1012.3
20260905203654 101 155 2.6 3.5 0.00 0.00 0.00 36 1012.2
20260905203150 101 231 0.9 2.6 0.00 0.00 0.00 35 1012.4